Portada
METAR-TAF:

METAR-TAF

Aeropuertos :

Aeropuerto de Castellón-Costa Azahar

Castellón de la Plana, España

latitud: 40-12-35N, longitud: 0-04-11E, altitud: 360 m

Observación

El informe se hizo hace 32 minutos, a las 15:00 UTC
Viento 6 kt del este-sureste, variando entre este-noreste y sureste
Temperatura 29°C
Humedad 48%
Presión 1018 hPa
Visibilidad: 9000 m

METAR: LECH 211500Z AUTO 11006KT 070V140 9000 NSC 29/17 Q1018

Hora: 17:32 (15:32 UTC)


TAF: falta

Observaciones y pronósticos meteorológicos de más de 4000 aeropuertos (mensajes METAR y TAF).

Los puntos amarillos y rojos representan las estaciones disponibles.

Ponga el ratón en el punto deseado para ver el nombre de la estación.

Haga clic para ver las observaciones y los pronósticos meteorológicos.

Para cambiar el mapa : haga clic en los botones verdes con una cruz de color negro para hacer un zoom, en el botón verde con un guión para alejar o en las flechas verdes para mapas adyacentes.


METAR-TAF: